Hourly Data Report for February 01, 2021

TORONTO CITY
ONTARIO
Current Station Operator: ECCC - MSC

43°40'00.000" N
79°24'00.000" W
112.50 m
6158355
71508
XTO

Download Data

Hourly Data (February 2021)
Hourly Data Report for February 1, 2021
TIME
LST
Temp Definition
°C
Dew Point Definition
°C
Rel Hum Definition
%
Precip. Amount Definition
mm

Wind Dir Definition
10's deg

Wind Spd Definition
km/h
Visibility Definition
km
Stn Press Definition
kPa
Hmdx Definition


Wind Chill Definition


Weather Definition


00:00 -8.2 -15.0 58 0.0       100.62     LegendNANA
01:00 -8.8 -15.4 59 0.0       100.62     LegendNANA
02:00 -9.3 -16.3 57 0.0       100.63     LegendNANA
03:00 -9.5 -16.4 57 0.0       100.63     LegendNANA
04:00 -9.3 -16.1 58 0.0       100.61     LegendNANA
05:00 -8.9 -15.7 58 0.0       100.59     LegendNANA
06:00 -8.5 -15.2 59 0.0       100.61     LegendNANA
07:00 -8.3 -15.4 57 0.0       100.64     LegendNANA
08:00 -8.2 -15.4 56 0.0       100.66     LegendNANA
09:00 -8.0 -15.4 55 0.0       100.64     LegendNANA
10:00 -7.3 -15.1 54 0.0       100.63     LegendNANA
11:00 -6.2 -15.1 49 0.0       100.60     LegendNANA
12:00 -5.3 -15.9 43 0.0       100.53     LegendNANA
13:00 -4.3 -14.6 45 0.0       100.43     LegendNANA
14:00 -3.3 -13.3 46 0.0       100.34     LegendNANA
15:00 -2.2 -13.0 43 0.0       100.33     LegendNANA
16:00 -2.5 -13.5 43 0.0       100.34     LegendNANA
17:00 -3.5 -15.9 38 0.0       100.38     LegendNANA
18:00 -3.5 -15.3 39 0.0       100.42     LegendNANA
19:00 -4.1 -15.2 41 0.0       100.45     LegendNANA
20:00 -4.2 -14.8 44 0.0       100.42     LegendNANA
21:00 -4.5 -14.0 47 0.0       100.40     LegendNANA
22:00 -4.4 -13.7 48 0.0       100.39     LegendNANA
23:00 -4.8 -14.5 47 0.0       100.37     LegendNANA

Notes on Data Quality.

Legend

  • E = Estimated
  • M = Missing
  • NA = Not Available*
  • [empty] = Indicates an unobserved value
Date modified: